Location: *
(38.9555°S, 57.3572°E)
Time: 00:10:20
(UTC+00:00)

USA 215 - Pass Details

Date: 15 July 2020
Orbit: 1102 x 1106 km, 123.0° (Epoch: 31 July)

Event Time Altitude Azimuth Distance (km) Brightness Sun altitude
Rises 14:02:03 0° 62° (ENE) 3,922 5.8 -10.6°
Reaches altitude 10° 14:04:34 10° 65° (ENE) 2,970 5.1 -11.0°
Maximum altitude 14:10:59 59° 143° (SE) 1,268 3.3 -12.2°
Drops below altitude 10° 14:17:27 10° 220° (SW) 2,992 5.8 -13.4°
Sets 14:19:59 0° 223° (SW) 3,954 6.5 -13.9°
